• In Italy
  • List of Countries
  • For 7 days
  • Water Temperature
  • Satellite Maps
  • Weather Map
  • Weather Widgets
  • user-avatar
    Login

    Hourly Weather Bhubaneswar

    Today, 24 January, Wednesday

    Time Temperature Precipitation Wind Pressure Humidity
    00:00 +21°C° 0 mm 1 mps 756 mmHg 66%
    01:00 +20°C° 0 mm 1 mps 756 mmHg 68%
    02:00 +20°C° 0 mm 1 mps 755 mmHg 70%
    03:00 +20°C° 0 mm 1 mps 755 mmHg 71%
    04:00 +19°C° 0 mm 1 mps 755 mmHg 73%
    05:00 +19°C° 0 mm 1 mps 755 mmHg 74%
    06:00 +19°C° 0 mm 1 mps 755 mmHg 75%
    07:00 +21°C° 0 mm 1 mps 756 mmHg 69%
    08:00 +22°C° 0 mm 1 mps 756 mmHg 63%
    09:00 +24°C° 0 mm 1 mps 756 mmHg 57%
    10:00 +26°C° 0 mm 1 mps 756 mmHg 49%
    11:00 +28°C° 0 mm 1 mps 756 mmHg 42%
    12:00 +30°C° 0 mm 2 mps 756 mmHg 35%
    13:00 +31°C° 0 mm 2 mps 755 mmHg 32%
    14:00 +31°C° 0 mm 2 mps 754 mmHg 29%
    15:00 +32°C° 0 mm 2 mps 754 mmHg 27%
    16:00 +31°C° 0 mm 3 mps 753 mmHg 32%
    17:00 +29°C° 0 mm 3 mps 753 mmHg 38%
    18:00 +27°C° 0 mm 3 mps 753 mmHg 43%
    19:00 +26°C° 0 mm 3 mps 754 mmHg 50%
    20:00 +25°C° 0 mm 3 mps 754 mmHg 57%
    21:00 +24°C° 0 mm 2 mps 755 mmHg 64%
    22:00 +23°C° 0 mm 2 mps 755 mmHg 68%
    23:00 +23°C° 0 mm 2 mps 755 mmHg 72%

    Tomorrow, 25 January, Thursday

    Time Temperature Precipitation Wind Pressure Humidity
    00:00 +21°C° 0 mm 2 mps 755 mmHg 77%
    01:00 +21°C° 0 mm 2 mps 755 mmHg 79%
    02:00 +21°C° 0 mm 2 mps 755 mmHg 81%
    03:00 +20°C° 0 mm 2 mps 754 mmHg 83%
    04:00 +20°C° 0 mm 2 mps 754 mmHg 82%
    05:00 +20°C° 0 mm 2 mps 754 mmHg 82%
    06:00 +19°C° 0 mm 2 mps 755 mmHg 81%
    07:00 +20°C° 0 mm 2 mps 755 mmHg 70%
    08:00 +23°C° 0 mm 2 mps 756 mmHg 60%
    09:00 +24°C° 0 mm 3 mps 757 mmHg 49%
    10:00 +26°C° 0 mm 3 mps 757 mmHg 43%
    11:00 +28°C° 0 mm 3 mps 756 mmHg 37%
    12:00 +30°C° 0 mm 3 mps 756 mmHg 30%
    13:00 +31°C° 0 mm 3 mps 755 mmHg 28%
    14:00 +31°C° 0 mm 3 mps 755 mmHg 26%
    15:00 +32°C° 0 mm 2 mps 754 mmHg 24%
    16:00 +30°C° 0 mm 2 mps 754 mmHg 29%
    17:00 +29°C° 0 mm 3 mps 754 mmHg 35%
    18:00 +27°C° 0 mm 3 mps 754 mmHg 40%
    19:00 +26°C° 0 mm 3 mps 754 mmHg 47%
    20:00 +24°C° 0 mm 2 mps 755 mmHg 55%
    21:00 +23°C° 0 mm 2 mps 756 mmHg 62%
    22:00 +22°C° 0 mm 1 mps 756 mmHg 65%
    23:00 +22°C° 0 mm 1 mps 756 mmHg 69%

    Day after tomorrow, 26 January, Friday

    Time Temperature Precipitation Wind Pressure Humidity
    00:00 +19°C° 0 mm 0 mps 756 mmHg 72%
    01:00 +19°C° 0 mm 0 mps 756 mmHg 73%
    02:00 +21°C° 0 mm 1 mps 755 mmHg 74%
    03:00 +20°C° 0 mm 1 mps 755 mmHg 75%
    04:00 +20°C° 0 mm 1 mps 755 mmHg 75%
    05:00 +20°C° 0 mm 1 mps 755 mmHg 75%
    06:00 +18°C° 0 mm 2 mps 755 mmHg 74%
    07:00 +20°C° 0 mm 2 mps 756 mmHg 66%
    08:00 +21°C° 0 mm 3 mps 757 mmHg 57%
    09:00 +24°C° 0 mm 3 mps 758 mmHg 49%
    10:00 +26°C° 0 mm 3 mps 758 mmHg 42%
    11:00 +28°C° 0 mm 3 mps 757 mmHg 35%
    12:00 +30°C° 0 mm 3 mps 757 mmHg 28%
    13:00 +30°C° 0 mm 2 mps 756 mmHg 26%
    14:00 +31°C° 0 mm 2 mps 755 mmHg 24%
    15:00 +32°C° 0 mm 1 mps 754 mmHg 21%
    16:00 +30°C° 0 mm 2 mps 754 mmHg 26%
    17:00 +29°C° 0 mm 2 mps 754 mmHg 32%
    18:00 +27°C° 0 mm 3 mps 754 mmHg 37%
    19:00 +26°C° 0 mm 3 mps 755 mmHg 45%
    20:00 +24°C° 0 mm 3 mps 756 mmHg 54%
    21:00 +23°C° 0 mm 2 mps 756 mmHg 63%
    22:00 +21°C° 0 mm 2 mps 756 mmHg 67%
    23:00 +22°C° 0 mm 1 mps 756 mmHg 71%

    27 January, Saturday

    Time Temperature Precipitation Wind Pressure Humidity
    00:00 +21°C° 0 mm 1 mps 756 mmHg 76%
    01:00 +21°C° 0 mm 1 mps 756 mmHg 78%
    02:00 +21°C° 0 mm 1 mps 756 mmHg 79%
    03:00 +20°C° 0 mm 1 mps 755 mmHg 81%
    04:00 +20°C° 0 mm 1 mps 755 mmHg 82%
    05:00 +20°C° 0 mm 1 mps 756 mmHg 84%
    06:00 +19°C° 0 mm 1 mps 756 mmHg 85%
    07:00 +21°C° 0 mm 1 mps 756 mmHg 78%
    08:00 +22°C° 0 mm 1 mps 757 mmHg 72%
    09:00 +24°C° 0 mm 2 mps 758 mmHg 65%
    10:00 +26°C° 0 mm 1 mps 758 mmHg 55%
    11:00 +28°C° 0 mm 1 mps 757 mmHg 46%
    12:00 +28°C° 0 mm 0 mps 757 mmHg 36%
    13:00 +31°C° 0 mm 1 mps 756 mmHg 33%
    14:00 +31°C° 0 mm 1 mps 755 mmHg 30%
    15:00 +31°C° 0 mm 2 mps 755 mmHg 26%
    16:00 +30°C° 0 mm 2 mps 754 mmHg 31%
    17:00 +28°C° 0 mm 2 mps 754 mmHg 37%
    18:00 +27°C° 0 mm 3 mps 754 mmHg 42%
    19:00 +26°C° 0 mm 3 mps 755 mmHg 49%
    20:00 +24°C° 0 mm 2 mps 756 mmHg 57%
    21:00 +23°C° 0 mm 2 mps 757 mmHg 64%
    22:00 +23°C° 0 mm 2 mps 757 mmHg 68%
    23:00 +22°C° 0 mm 1 mps 757 mmHg 72%

    28 January, Sunday

    Time Temperature Precipitation Wind Pressure Humidity
    00:00 +22°C° 0 mm 1 mps 757 mmHg 76%
    01:00 +22°C° 0 mm 1 mps 756 mmHg 78%
    02:00 +21°C° 0 mm 1 mps 756 mmHg 79%
    03:00 +21°C° 0 mm 1 mps 756 mmHg 81%
    04:00 +20°C° 0 mm 1 mps 756 mmHg 83%
    05:00 +20°C° 0 mm 1 mps 756 mmHg 84%
    06:00 +20°C° 0 mm 1 mps 757 mmHg 85%
    07:00 +20°C° 0 mm 2 mps 757 mmHg 78%
    08:00 +21°C° 0 mm 2 mps 758 mmHg 71%
    09:00 +24°C° 0 mm 2 mps 759 mmHg 65%
    10:00 +26°C° 0 mm 2 mps 759 mmHg 56%
    11:00 +28°C° 0 mm 1 mps 758 mmHg 47%
    12:00 +30°C° 0 mm 1 mps 758 mmHg 38%
    13:00 +30°C° 0 mm 1 mps 757 mmHg 34%
    14:00 +31°C° 0 mm 1 mps 756 mmHg 30%
    15:00 +31°C° 0 mm 1 mps 756 mmHg 27%
    16:00 +30°C° 0 mm 2 mps 756 mmHg 30%
    17:00 +29°C° 0 mm 2 mps 756 mmHg 34%
    18:00 +27°C° 0 mm 3 mps 756 mmHg 38%
    19:00 +26°C° 0 mm 3 mps 756 mmHg 44%
    20:00 +25°C° 0 mm 3 mps 757 mmHg 50%
    21:00 +23°C° 0 mm 2 mps 757 mmHg 57%
    22:00 +23°C° 0 mm 2 mps 757 mmHg 60%
    23:00 +21°C° 0 mm 2 mps 757 mmHg 64%

    29 January, Monday

    Time Temperature Precipitation Wind Pressure Humidity
    00:00 +22°C° 0 mm 1 mps 758 mmHg 68%
    01:00 +21°C° 0 mm 1 mps 757 mmHg 71%
    02:00 +21°C° 0 mm 1 mps 757 mmHg 74%
    03:00 +21°C° 0 mm 1 mps 757 mmHg 77%
    04:00 +20°C° 0 mm 1 mps 757 mmHg 79%
    05:00 +20°C° 0 mm 1 mps 757 mmHg 81%
    06:00 +20°C° 0 mm 1 mps 757 mmHg 84%
    07:00 +21°C° 0 mm 1 mps 758 mmHg 77%
    08:00 +22°C° 0 mm 1 mps 759 mmHg 71%
    09:00 +24°C° 0 mm 1 mps 759 mmHg 65%
    10:00 +26°C° 0 mm 1 mps 759 mmHg 54%
    11:00 +29°C° 0 mm 1 mps 759 mmHg 44%
    12:00 +29°C° 0 mm 0 mps 759 mmHg 34%
    13:00 +31°C° 0 mm 1 mps 758 mmHg 31%
    14:00 +32°C° 0 mm 1 mps 757 mmHg 28%
    15:00 +32°C° 0 mm 2 mps 757 mmHg 26%
    16:00 +31°C° 0 mm 2 mps 757 mmHg 31%
    17:00 +29°C° 0 mm 2 mps 757 mmHg 36%
    18:00 +28°C° 0 mm 3 mps 757 mmHg 42%
    19:00 +26°C° 0 mm 3 mps 757 mmHg 50%
    20:00 +25°C° 0 mm 2 mps 757 mmHg 58%
    21:00 +24°C° 0 mm 2 mps 758 mmHg 65%
    22:00 +23°C° 0 mm 2 mps 758 mmHg 68%
    23:00 +23°C° 0 mm 2 mps 758 mmHg 71%
    Show more